Flight Track Log - Related Links

Times and Time Zones

All times are in EDT time to prevent confusion due to time zone crossing. See the CTL15 flight status page for this flight to view local times or setup timezone preferences in your user account.


Time Position Orientation Groundspeed Altitude Reporting Facility
EDT Latitude Longitude Course Direction KTS MPH feet Rate Location/Type
Fri 08:29:38 PM 39.5744 -84.2094 49° Northeast 169 194 1,900  Level Indianapolis Center
Fri 08:30:26 PM 39.5958 -84.1769 49° Northeast 163 188 2,500 659 Climbing Indianapolis Center
Fri 08:31:09 PM 39.6244 -84.1436 42° Northeast 172 198 2,900 537 Climbing Indianapolis Center
Fri 08:31:33 PM 39.6397 -84.1258 42° Northeast 190 219 3,100 98 Climbing Indianapolis Center
Fri 08:32:10 PM 39.6644 -84.0947 44° Northeast 184 212 3,000 -218 Descending Indianapolis Center
Fri 08:32:28 PM 39.6769 -84.0767 48° Northeast 207 238 2,900  Descending Indianapolis Center
Fri 08:33:12 PM 39.7044 -84.0428 43° Northeast 195 224 3,000 200 Climbing Indianapolis Center
Fri 08:33:28 PM 39.7164 -84.0275 45° Northeast 193 222 3,100  Climbing Indianapolis Center
Fri 08:34:14 PM 39.7428 -83.9933 45° Northeast 194 223 3,000 -98 Descending Indianapolis Center
Fri 08:34:29 PM 39.7536 -83.9806 42° Northeast 179 206 3,000 98 Level Indianapolis Center
Fri 08:35:15 PM 39.7817 -83.9450 44° Northeast 192 221 3,100  Climbing Indianapolis Center
Fri 08:35:30 PM 39.7931 -83.9314 43° Northeast 194 223 3,000  Descending Indianapolis Center
Fri 08:36:17 PM 39.8200 -83.8956 46° Northeast 192 221 3,100 56 Climbing Indianapolis Center
Fri 08:37:18 PM 39.8592 -83.8469 44° Northeast 192 221 3,100 -49 Level Indianapolis Center
Fri 08:38:20 PM 39.8969 -83.7983 45° Northeast 191 220 3,000 -49 Descending Indianapolis Center
Fri 08:39:21 PM 39.9353 -83.7494 44° Northeast 190 219 3,000 49 Level Indianapolis Center
Fri 08:40:23 PM 39.9736 -83.7003 44° Northeast 190 219 3,100 49 Climbing Indianapolis Center
Fri 08:41:24 PM 40.0128 -83.6506 44° Northeast 192 221 3,100  Level Indianapolis Center
Fri 08:42:26 PM 40.0517 -83.5994 45° Northeast 193 222 3,100  Level Indianapolis Center
Fri 08:43:27 PM 40.0917 -83.5489 44° Northeast 196 226 3,100 -49 Level Indianapolis Center
Fri 08:44:29 PM 40.1325 -83.4992 43° Northeast 197 227 3,000 -49 Descending Indianapolis Center
Fri 08:45:30 PM 40.1719 -83.4483 45° Northeast 197 227 3,000 50 Level Indianapolis Center
Fri 08:46:30 PM 40.2181 -83.3936 42° Northeast 195 224 3,100 50 Climbing Indianapolis Center
Fri 08:47:31 PM 40.2569 -83.3464 43° Northeast 195 224 3,100  Level Indianapolis Center
Fri 08:48:32 PM 40.3003 -83.2969 41° Northeast 196 226 3,100  Level Indianapolis Center
Fri 08:49:36 PM 40.3414 -83.2478 42° Northeast 195 224 3,100  Level Indianapolis Center
Fri 08:50:37 PM 40.3814 -83.1989 43° Northeast 194 223 3,100  Level Indianapolis Center
Fri 08:51:39 PM 40.4208 -83.1478 45° Northeast 196 226 3,100 -49 Level Indianapolis Center
Fri 08:52:40 PM 40.4608 -83.0944 45° Northeast 199 229 3,000 -49 Descending Indianapolis Center
Fri 08:53:41 PM 40.5008 -83.0419 45° Northeast 200 230 3,000  Level Indianapolis Center
Fri 08:54:43 PM 40.5406 -82.9900 45° Northeast 201 231 3,000  Level Indianapolis Center
Fri 08:55:44 PM 40.5797 -82.9369 46° Northeast 200 230 3,000  Level Indianapolis Center
Fri 08:56:46 PM 40.6183 -82.8828 47° Northeast 199 229 3,000  Level Indianapolis Center
Fri 08:57:47 PM 40.6558 -82.8275 48° Northeast 200 230 3,000  Level Indianapolis Center
Fri 08:58:48 PM 40.6956 -82.7769 44° Northeast 198 228 3,000  Level Indianapolis Center
Fri 08:59:50 PM 40.7331 -82.7244 47° Northeast 196 226 3,000 49 Level Indianapolis Center
Fri 09:00:51 PM 40.7722 -82.6719 45° Northeast 198 228 3,100  Climbing Indianapolis Center
Fri 09:01:16 PM 40.7883 -82.6481 48° Northeast 200 230 3,000 -70 Descending Cleveland Center
Fri 09:02:17 PM 40.8292 -82.5917 46° Northeast 197 227 3,000  Level Cleveland Center

Login

Don't have an account? Register now (free) for customized features, flight alerts, and more!